Location: Bushey
(51.6333°N, 0.3667°W)
Time: 02:05:49
(UTC+00:00)

USA 306 - Pass Details

Date: 03 March 2021
Orbit: 564 x 577 km, 54.0° (Epoch: 10 April)

Event Time Altitude Azimuth Distance (km) Brightness Sun altitude
Rises 19:58:09 0° 282° (WNW) 2,784 8.0 -21.2°
Reaches altitude 10° 20:00:25 10° 285° (WNW) 1,883 6.7 -21.5°
Maximum altitude 20:04:41 66° 8° (N) 627 3.0 -22.1°
Enters shadow 20:05:05 62° 42° (NE) 648 2.9 -22.2°
